Time,TemperatureF,DewpointF,PressureIn,WindDirection,WindDirectionDegrees,WindSpeedMPH,WindSpeedGustMPH,Humidity,HourlyPrecipIn,Conditions,Clouds,dailyrainin,SolarRadiationWatts/m^2,SoftwareType,DateUTC
2013-11-05 00:02:00,61.3,59.0,30.09,ESE,112,4.6,4.6,92,0.09,RA,,0.00,0.0,WeatherDisplay:10.37,2013-11-05 06:02:00,
2013-11-05 00:07:00,61.3,59.0,30.09,East,90,4.6,4.6,92,0.09,RA,,0.00,0.0,WeatherDisplay:10.37,2013-11-05 06:07:00,
2013-11-05 00:12:00,61.3,59.0,30.08,East,90,4.6,4.6,92,0.09,RA,,0.03,0.0,WeatherDisplay:10.37,2013-11-05 06:12:00,
2013-11-05 00:17:00,61.3,59.0,30.08,ESE,112,4.7,4.7,92,0.09,RA,,0.03,0.0,WeatherDisplay:10.37,2013-11-05 06:17:00,
2013-11-05 00:22:00,61.3,59.0,30.08,SSW,202,5.8,5.8,92,0.13,RA,,0.06,0.0,WeatherDisplay:10.37,2013-11-05 06:22:00,
2013-11-05 00:27:00,61.3,59.0,30.08,SE,135,6.9,6.9,92,0.13,RA,,0.06,0.0,WeatherDisplay:10.37,2013-11-05 06:27:00,
2013-11-05 00:32:00,61.3,59.0,30.08,SSE,158,5.8,5.8,92,0.13,,,0.06,0.0,WeatherDisplay:10.37,2013-11-05 06:32:00,
2013-11-05 00:37:00,61.3,59.0,30.08,North,0,4.8,4.8,92,0.09,CLR,,0.06,0.0,WeatherDisplay:10.37,2013-11-05 06:37:00,
2013-11-05 00:42:00,61.3,59.0,30.08,ESE,112,5.8,5.8,92,0.09,CLR,,0.06,0.0,WeatherDisplay:10.37,2013-11-05 06:42:00,
2013-11-05 00:47:00,61.3,59.0,30.08,East,90,5.4,5.4,92,0.09,CLR,,0.06,0.0,WeatherDisplay:10.37,2013-11-05 06:47:00,
2013-11-05 00:52:00,61.3,59.0,30.08,SE,135,4.6,4.6,92,0.09,CLR,,0.06,0.0,WeatherDisplay:10.37,2013-11-05 06:52:00,
2013-11-05 00:57:00,61.3,59.0,30.08,East,90,4.3,4.3,92,0.09,CLR,,0.06,0.0,WeatherDisplay:10.37,2013-11-05 06:57:00,
2013-11-05 01:02:00,61.3,59.0,30.08,ESE,112,3.5,3.5,92,0.06,CLR,,0.06,0.0,WeatherDisplay:10.37,2013-11-05 07:02:00,
2013-11-05 01:07:00,61.3,59.0,30.06,ESE,112,4.6,4.6,92,0.06,CLR,,0.06,0.0,WeatherDisplay:10.37,2013-11-05 07:07:00,
2013-11-05 01:12:00,61.3,59.0,30.06,ESE,112,3.5,3.5,92,0.03,CLR,,0.06,0.0,WeatherDisplay:10.37,2013-11-05 07:12:00,
2013-11-05 01:17:00,61.5,59.5,30.06,ESE,112,3.5,3.5,93,0.03,CLR,,0.06,0.0,WeatherDisplay:10.37,2013-11-05 07:17:00,
2013-11-05 01:22:00,61.5,59.2,30.06,ESE,112,4.9,4.9,92,0.00,CLR,,0.06,0.0,WeatherDisplay:10.37,2013-11-05 07:22:00,
2013-11-05 01:27:00,61.5,59.5,30.06,East,90,5.2,5.2,93,0.00,CLR,,0.06,0.0,WeatherDisplay:10.37,2013-11-05 07:27:00,
2013-11-05 01:32:00,61.5,59.5,30.06,East,90,4.6,4.6,93,0.00,CLR,,0.06,0.0,WeatherDisplay:10.37,2013-11-05 07:32:00,
2013-11-05 01:37:00,61.7,59.7,30.06,ESE,112,4.6,4.6,93,0.00,CLR,,0.06,0.0,WeatherDisplay:10.37,2013-11-05 07:37:00,
2013-11-05 01:42:00,61.5,59.5,30.06,ENE,68,5.8,5.8,93,0.00,CLR,,0.06,0.0,WeatherDisplay:10.37,2013-11-05 07:42:00,
2013-11-05 01:47:00,61.5,59.5,30.06,SE,135,3.5,3.5,93,0.00,CLR,,0.06,0.0,WeatherDisplay:10.37,2013-11-05 07:47:00,
2013-11-05 01:52:00,61.7,59.7,30.06,SE,135,3.5,3.5,93,0.00,CLR,,0.06,0.0,WeatherDisplay:10.37,2013-11-05 07:52:00,
2013-11-05 01:57:00,61.7,59.7,30.06,SE,135,4.6,4.6,93,0.00,CLR,,0.06,0.0,WeatherDisplay:10.37,2013-11-05 07:57:00,
2013-11-05 02:02:00,61.7,59.7,30.06,SSE,158,4.6,4.6,93,0.00,CLR,,0.06,0.0,WeatherDisplay:10.37,2013-11-05 08:02:00,
2013-11-05 02:07:00,61.9,59.8,30.06,ESE,112,4.6,4.6,93,0.00,CLR,,0.06,0.0,WeatherDisplay:10.37,2013-11-05 08:07:00,
2013-11-05 02:12:00,62.1,60.0,30.06,South,180,4.6,4.6,93,0.00,CLR,,0.06,0.0,WeatherDisplay:10.37,2013-11-05 08:12:00,
2013-11-05 02:17:00,61.9,59.8,30.06,SE,135,7.2,7.2,93,0.00,CLR,,0.06,0.0,WeatherDisplay:10.37,2013-11-05 08:17:00,
2013-11-05 02:22:00,61.9,59.8,30.06,SSE,158,5.8,5.8,93,0.00,CLR,,0.06,0.0,WeatherDisplay:10.37,2013-11-05 08:22:00,
2013-11-05 02:27:00,62.1,60.0,30.06,West,270,6.9,6.9,93,0.00,CLR,,0.06,0.0,WeatherDisplay:10.37,2013-11-05 08:27:00,
2013-11-05 02:32:00,62.1,60.0,30.06,SE,135,6.9,6.9,93,0.00,CLR,,0.06,0.0,WeatherDisplay:10.37,2013-11-05 08:32:00,
2013-11-05 02:37:00,62.2,60.2,30.06,ESE,112,5.8,5.8,93,0.00,CLR,,0.06,0.0,WeatherDisplay:10.37,2013-11-05 08:37:00,
2013-11-05 02:43:00,62.2,60.2,30.06,NE,45,7.2,7.2,93,0.00,CLR,,0.06,0.0,WeatherDisplay:10.37,2013-11-05 08:43:00,
2013-11-05 02:48:00,62.2,60.2,30.05,East,90,4.6,4.6,93,0.00,CLR,,0.06,0.0,WeatherDisplay:10.37,2013-11-05 08:48:00,
2013-11-05 02:53:00,62.2,60.2,30.05,SE,135,9.2,9.2,93,0.00,CLR,,0.06,0.0,WeatherDisplay:10.37,2013-11-05 08:53:00,
2013-11-05 02:58:00,62.4,60.4,30.05,SE,135,4.6,4.8,93,0.00,CLR,,0.06,0.0,WeatherDisplay:10.37,2013-11-05 08:58:00,
2013-11-05 03:03:00,62.4,60.4,30.05,ESE,112,3.5,4.9,93,0.00,CLR,,0.06,0.0,WeatherDisplay:10.37,2013-11-05 09:03:00,
2013-11-05 03:08:00,62.2,60.2,30.05,ESE,112,5.8,5.8,93,0.00,CLR,,0.06,0.0,WeatherDisplay:10.37,2013-11-05 09:08:00,
2013-11-05 03:13:00,62.2,60.2,30.05,West,270,4.6,4.6,93,0.00,CLR,,0.06,0.0,WeatherDisplay:10.37,2013-11-05 09:13:00,
2013-11-05 03:18:00,62.2,60.2,30.05,East,90,8.1,8.1,93,0.00,CLR,,0.06,0.0,WeatherDisplay:10.37,2013-11-05 09:18:00,
2013-11-05 03:23:00,62.4,60.4,30.05,SSE,158,4.6,4.6,93,0.00,CLR,,0.06,0.0,WeatherDisplay:10.37,2013-11-05 09:23:00,
2013-11-05 03:28:00,62.4,60.4,30.05,SE,135,6.9,6.9,93,0.00,CLR,,0.06,0.0,WeatherDisplay:10.37,2013-11-05 09:28:00,
2013-11-05 03:33:00,62.4,60.4,30.05,ESE,112,5.8,5.8,93,0.00,CLR,,0.06,0.0,WeatherDisplay:10.37,2013-11-05 09:33:00,
2013-11-05 03:38:00,62.6,60.5,30.05,ESE,112,5.2,5.2,93,0.00,CLR,,0.06,0.0,WeatherDisplay:10.37,2013-11-05 09:38:00,
2013-11-05 03:43:00,62.6,60.5,30.05,ESE,112,5.6,5.6,93,0.00,CLR,,0.06,0.0,WeatherDisplay:10.37,2013-11-05 09:43:00,
2013-11-05 03:48:00,62.8,60.7,30.03,ENE,68,3.6,3.6,93,0.00,CLR,,0.06,0.0,WeatherDisplay:10.37,2013-11-05 09:48:00,
2013-11-05 03:53:00,62.8,60.7,30.03,ESE,112,4.6,4.6,93,0.00,CLR,,0.06,0.0,WeatherDisplay:10.37,2013-11-05 09:53:00,
2013-11-05 03:58:00,62.6,60.5,30.03,ESE,112,3.5,3.5,93,0.00,CLR,,0.06,0.0,WeatherDisplay:10.37,2013-11-05 09:58:00,
2013-11-05 04:03:00,62.6,60.5,30.03,ESE,112,4.3,4.3,93,0.00,CLR,,0.06,0.0,WeatherDisplay:10.37,2013-11-05 10:03:00,
2013-11-05 04:08:00,62.8,60.7,30.05,SSE,158,4.6,4.6,93,0.00,CLR,,0.06,0.0,WeatherDisplay:10.37,2013-11-05 10:08:00,
2013-11-05 04:13:00,62.8,60.7,30.05,SE,135,2.3,3.3,93,0.00,CLR,,0.06,0.0,WeatherDisplay:10.37,2013-11-05 10:13:00,
2013-11-05 04:18:00,62.8,60.7,30.05,ESE,112,4.6,4.6,93,0.00,CLR,,0.06,0.0,WeatherDisplay:10.37,2013-11-05 10:18:00,
2013-11-05 04:23:00,62.8,60.7,30.05,SE,135,5.8,5.8,93,0.00,CLR,,0.06,0.0,WeatherDisplay:10.37,2013-11-05 10:23:00,
2013-11-05 04:28:00,62.8,60.7,30.04,East,90,5.8,5.8,93,0.00,CLR,,0.06,0.0,WeatherDisplay:10.37,2013-11-05 10:28:00,
2013-11-05 04:33:00,63.0,60.9,30.04,ESE,112,4.6,4.6,93,0.00,CLR,,0.06,0.0,WeatherDisplay:10.37,2013-11-05 10:33:00,
2013-11-05 04:38:00,63.0,60.9,30.04,ESE,112,9.2,9.2,93,0.00,CLR,,0.06,0.0,WeatherDisplay:10.37,2013-11-05 10:38:00,
2013-11-05 04:43:00,63.0,60.9,30.04,SE,135,4.6,4.9,93,0.00,CLR,,0.06,0.0,WeatherDisplay:10.37,2013-11-05 10:43:00,
2013-11-05 04:48:00,63.0,60.9,30.03,SE,135,8.1,8.1,93,0.00,CLR,,0.06,0.0,WeatherDisplay:10.37,2013-11-05 10:48:00,
2013-11-05 04:53:00,63.0,60.9,30.03,ESE,112,8.3,8.3,93,0.00,CLR,,0.06,0.0,WeatherDisplay:10.37,2013-11-05 10:53:00,
2013-11-05 04:58:00,63.0,60.9,30.03,SE,135,8.1,8.1,93,0.00,CLR,,0.06,0.0,WeatherDisplay:10.37,2013-11-05 10:58:00,
2013-11-05 05:03:00,63.1,61.1,30.03,ESE,112,7.8,7.8,93,0.00,CLR,,0.06,0.0,WeatherDisplay:10.37,2013-11-05 11:03:00,
2013-11-05 05:08:00,63.1,61.1,30.04,SSW,202,9.2,9.2,93,0.00,CLR,,0.06,0.0,WeatherDisplay:10.37,2013-11-05 11:08:00,
2013-11-05 05:13:00,63.1,61.1,30.04,ESE,112,6.8,6.8,93,0.00,CLR,,0.06,0.0,WeatherDisplay:10.37,2013-11-05 11:13:00,
2013-11-05 05:18:00,63.1,61.1,30.04,ESE,112,5.9,5.9,93,0.00,CLR,,0.06,0.0,WeatherDisplay:10.37,2013-11-05 11:18:00,
2013-11-05 05:23:00,63.0,60.9,30.04,East,90,4.6,4.8,93,0.00,CLR,,0.06,0.0,WeatherDisplay:10.37,2013-11-05 11:23:00,
2013-11-05 05:28:00,63.0,60.9,30.03,South,180,6.9,6.9,93,0.00,CLR,,0.06,0.0,WeatherDisplay:10.37,2013-11-05 11:28:00,
2013-11-05 05:33:00,63.0,60.9,30.03,SE,135,3.5,4.8,93,0.00,CLR,,0.06,0.0,WeatherDisplay:10.37,2013-11-05 11:33:00,
2013-11-05 05:38:00,63.0,60.9,30.03,SE,135,6.9,6.9,93,0.00,CLR,,0.06,0.0,WeatherDisplay:10.37,2013-11-05 11:38:00,
2013-11-05 05:43:00,63.1,61.1,30.03,SE,135,6.9,6.9,93,0.00,CLR,,0.06,0.0,WeatherDisplay:10.37,2013-11-05 11:43:00,
2013-11-05 05:48:00,63.1,61.1,30.04,SSE,158,3.5,4.6,93,0.00,CLR,,0.06,0.0,WeatherDisplay:10.37,2013-11-05 11:48:00,
2013-11-05 05:53:00,63.1,61.1,30.04,SE,135,4.6,4.6,93,0.00,CLR,,0.06,0.0,WeatherDisplay:10.37,2013-11-05 11:53:00,
2013-11-05 05:58:00,63.1,61.1,30.04,SSE,158,4.6,4.6,93,0.00,CLR,,0.06,0.0,WeatherDisplay:10.37,2013-11-05 11:58:00,
2013-11-05 06:03:00,63.1,61.1,30.04,SE,135,5.9,5.9,93,0.00,CLR,,0.06,0.0,WeatherDisplay:10.37,2013-11-05 12:03:00,
2013-11-05 06:08:00,63.1,61.1,30.05,ESE,112,5.1,5.1,93,0.00,CLR,,0.06,0.0,WeatherDisplay:10.37,2013-11-05 12:08:00,
2013-11-05 06:13:00,63.3,61.3,30.05,ESE,112,4.6,4.6,93,0.00,CLR,,0.06,0.0,WeatherDisplay:10.37,2013-11-05 12:13:00,
2013-11-05 06:18:00,63.5,61.4,30.05,SE,135,7.2,7.2,93,0.00,CLR,,0.06,0.0,WeatherDisplay:10.37,2013-11-05 12:18:00,
2013-11-05 06:24:00,63.5,61.4,30.05,ESE,112,5.8,5.8,93,0.00,OVC,,0.06,0.0,WeatherDisplay:10.37,2013-11-05 12:24:00,
2013-11-05 06:29:00,63.3,61.3,30.06,SE,135,5.8,5.8,93,0.00,OVC,,0.06,0.0,WeatherDisplay:10.37,2013-11-05 12:29:00,
2013-11-05 06:34:00,63.5,61.7,30.06,SE,135,3.5,4.3,94,0.00,OVC,,0.06,0.0,WeatherDisplay:10.37,2013-11-05 12:34:00,
2013-11-05 06:39:00,63.5,61.7,30.06,SSE,158,3.5,3.8,94,0.00,OVC,,0.06,0.0,WeatherDisplay:10.37,2013-11-05 12:39:00,
2013-11-05 06:44:00,63.5,61.7,30.06,ESE,112,8.1,8.1,94,0.00,OVC,,0.06,0.0,WeatherDisplay:10.37,2013-11-05 12:44:00,
2013-11-05 06:49:00,63.7,61.9,30.05,SE,135,6.9,6.9,94,0.00,OVC,,0.06,0.0,WeatherDisplay:10.37,2013-11-05 12:49:00,
2013-11-05 06:54:00,63.7,61.9,30.05,SE,135,6.9,6.9,94,0.00,OVC,,0.06,0.0,WeatherDisplay:10.37,2013-11-05 12:54:00,
2013-11-05 06:59:00,63.7,61.9,30.05,ESE,112,9.5,9.5,94,0.00,OVC,,0.06,0.0,WeatherDisplay:10.37,2013-11-05 12:59:00,
2013-11-05 07:04:00,63.7,61.9,30.05,SE,135,6.9,6.9,94,0.00,OVC,,0.06,0.0,WeatherDisplay:10.37,2013-11-05 13:04:00,
2013-11-05 07:09:00,63.7,61.9,30.04,ESE,112,6.9,6.9,94,0.00,OVC,,0.06,0.0,WeatherDisplay:10.37,2013-11-05 13:09:00,
2013-11-05 07:14:00,63.7,61.9,30.04,SE,135,9.4,9.4,94,0.00,OVC,,0.06,0.0,WeatherDisplay:10.37,2013-11-05 13:14:00,
2013-11-05 07:19:00,63.7,61.9,30.04,SE,135,6.2,6.6,94,0.00,OVC,,0.06,0.0,WeatherDisplay:10.37,2013-11-05 13:19:00,
2013-11-05 07:24:00,63.5,61.7,30.04,ESE,112,5.8,5.8,94,0.00,OVC,,0.06,0.0,WeatherDisplay:10.37,2013-11-05 13:24:00,
2013-11-05 07:29:00,63.7,61.9,30.06,ESE,112,6.9,6.9,94,0.00,OVC,,0.06,0.0,WeatherDisplay:10.37,2013-11-05 13:29:00,
2013-11-05 07:34:00,63.5,61.7,30.06,ESE,112,5.8,5.8,94,0.00,OVC,,0.06,0.0,WeatherDisplay:10.37,2013-11-05 13:34:00,
2013-11-05 07:39:00,63.7,61.9,30.06,SE,135,5.8,5.8,94,0.00,OVC,,0.06,0.0,WeatherDisplay:10.37,2013-11-05 13:39:00,
2013-11-05 07:44:00,63.7,61.9,30.06,SE,135,4.6,4.9,94,0.00,OVC,,0.06,0.0,WeatherDisplay:10.37,2013-11-05 13:44:00,
2013-11-05 07:49:00,63.7,61.6,30.06,East,90,4.6,4.6,93,0.00,OVC,,0.06,0.0,WeatherDisplay:10.37,2013-11-05 13:49:00,
2013-11-05 07:54:00,63.7,61.9,30.06,ESE,112,4.6,4.6,94,0.00,OVC,,0.06,0.0,WeatherDisplay:10.37,2013-11-05 13:54:00,
2013-11-05 07:59:00,63.9,62.1,30.06,SE,135,7.7,7.7,94,0.00,OVC,,0.06,0.0,WeatherDisplay:10.37,2013-11-05 13:59:00,
2013-11-05 08:04:00,63.9,62.1,30.06,SW,225,4.6,4.6,94,0.00,OVC,,0.06,0.0,WeatherDisplay:10.37,2013-11-05 14:04:00,
2013-11-05 08:09:00,63.7,61.9,30.07,East,90,5.8,5.8,94,0.00,OVC,,0.06,0.0,WeatherDisplay:10.37,2013-11-05 14:09:00,
2013-11-05 08:14:00,63.7,61.9,30.07,ESE,112,6.9,6.9,94,0.00,OVC,,0.06,0.0,WeatherDisplay:10.37,2013-11-05 14:14:00,
2013-11-05 08:19:00,63.7,61.9,30.07,SE,135,8.1,8.1,94,0.00,OVC,,0.06,0.0,WeatherDisplay:10.37,2013-11-05 14:19:00,
2013-11-05 08:24:00,63.7,61.9,30.07,SSE,158,9.2,9.2,94,0.00,OVC,,0.06,0.0,WeatherDisplay:10.37,2013-11-05 14:24:00,
2013-11-05 08:29:00,63.9,62.1,30.07,East,90,4.6,5.4,94,0.00,OVC,,0.06,0.0,WeatherDisplay:10.37,2013-11-05 14:29:00,
2013-11-05 08:34:00,64.0,62.3,30.07,ESE,112,6.9,6.9,94,0.00,OVC,,0.06,0.0,WeatherDisplay:10.37,2013-11-05 14:34:00,
2013-11-05 08:39:00,63.9,62.1,30.07,SE,135,6.2,6.2,94,0.00,OVC,,0.06,0.0,WeatherDisplay:10.37,2013-11-05 14:39:00,
2013-11-05 08:44:00,63.9,62.1,30.07,SE,135,9.5,9.5,94,0.00,OVC,,0.06,0.0,WeatherDisplay:10.37,2013-11-05 14:44:00,
2013-11-05 08:49:00,64.0,62.3,30.08,SE,135,7.2,7.2,94,0.00,OVC,,0.06,0.0,WeatherDisplay:10.37,2013-11-05 14:49:00,
2013-11-05 08:54:00,64.2,62.5,30.08,ESE,112,10.4,10.4,94,0.00,OVC,,0.06,0.0,WeatherDisplay:10.37,2013-11-05 14:54:00,
2013-11-05 08:59:00,64.4,62.6,30.08,SE,135,6.9,6.9,94,0.00,OVC,,0.06,0.0,WeatherDisplay:10.37,2013-11-05 14:59:00,
2013-11-05 09:04:00,64.4,62.6,30.08,NW,315,4.6,5.3,94,0.00,OVC,,0.06,0.0,WeatherDisplay:10.37,2013-11-05 15:04:00,
2013-11-05 09:09:00,64.6,62.8,30.08,NNE,22,10.4,10.4,94,0.00,OVC,,0.06,0.0,WeatherDisplay:10.37,2013-11-05 15:09:00,
2013-11-05 09:14:00,64.6,62.8,30.08,SSE,158,8.1,8.1,94,0.00,OVC,,0.06,0.0,WeatherDisplay:10.37,2013-11-05 15:14:00,
2013-11-05 09:19:00,64.6,62.8,30.08,ESE,112,6.9,6.9,94,0.00,OVC,,0.06,0.0,WeatherDisplay:10.37,2013-11-05 15:19:00,
2013-11-05 09:24:00,64.6,62.8,30.08,SSE,158,6.9,6.9,94,0.00,OVC,,0.06,0.0,WeatherDisplay:10.37,2013-11-05 15:24:00,
2013-11-05 09:29:00,64.6,62.8,30.09,SSE,158,6.9,6.9,94,0.00,OVC,,0.06,0.0,WeatherDisplay:10.37,2013-11-05 15:29:00,
2013-11-05 09:34:00,64.8,63.0,30.09,ESE,112,9.2,9.2,94,0.00,OVC,,0.06,0.0,WeatherDisplay:10.37,2013-11-05 15:34:00,
2013-11-05 09:39:00,64.6,62.8,30.09,East,90,4.6,4.9,94,0.00,OVC,,0.06,0.0,WeatherDisplay:10.37,2013-11-05 15:39:00,
2013-11-05 09:44:00,64.9,63.2,30.09,East,90,8.1,8.1,94,0.00,OVC,,0.06,0.0,WeatherDisplay:10.37,2013-11-05 15:44:00,
2013-11-05 09:49:00,64.8,63.0,30.08,SE,135,9.0,9.0,94,0.00,OVC,,0.06,0.0,WeatherDisplay:10.37,2013-11-05 15:49:00,
2013-11-05 09:54:00,64.8,63.0,30.08,ESE,112,8.1,8.1,94,0.00,OVC,,0.06,0.0,WeatherDisplay:10.37,2013-11-05 15:54:00,
2013-11-05 09:59:00,64.8,63.0,30.08,SE,135,6.9,6.9,94,0.00,OVC,,0.06,0.0,WeatherDisplay:10.37,2013-11-05 15:59:00,
2013-11-05 10:04:00,64.9,63.2,30.08,East,90,6.1,6.1,94,0.00,OVC,,0.06,0.0,WeatherDisplay:10.37,2013-11-05 16:04:00,
2013-11-05 10:09:00,64.9,63.2,30.08,ESE,112,5.8,5.8,94,0.00,OVC,,0.06,0.0,WeatherDisplay:10.37,2013-11-05 16:09:00,
2013-11-05 10:14:00,64.9,63.2,30.08,ESE,112,4.6,4.6,94,0.00,OVC,,0.06,0.0,WeatherDisplay:10.37,2013-11-05 16:14:00,
2013-11-05 10:19:00,65.1,63.3,30.08,ESE,112,4.6,4.6,94,0.00,OVC,,0.06,0.0,WeatherDisplay:10.37,2013-11-05 16:19:00,
2013-11-05 10:24:00,65.3,63.5,30.08,ESE,112,4.6,4.6,94,0.00,OVC,,0.06,0.0,WeatherDisplay:10.37,2013-11-05 16:24:00,
2013-11-05 10:29:00,65.3,63.2,30.08,SE,135,6.9,6.9,93,0.00,OVC,,0.06,0.0,WeatherDisplay:10.37,2013-11-05 16:29:00,
2013-11-05 10:34:00,65.3,63.2,30.08,SSE,158,4.6,4.6,93,0.00,OVC,,0.06,0.0,WeatherDisplay:10.37,2013-11-05 16:34:00,
2013-11-05 10:39:00,65.5,63.4,30.08,ESE,112,2.8,2.8,93,0.00,OVC,,0.06,0.0,WeatherDisplay:10.37,2013-11-05 16:39:00,
2013-11-05 10:44:00,65.5,63.4,30.08,ESE,112,5.8,5.8,93,0.00,OVC,,0.06,0.0,WeatherDisplay:10.37,2013-11-05 16:44:00,
2013-11-05 10:49:00,65.7,63.6,30.08,SSE,158,3.8,3.8,93,0.00,OVC,,0.06,0.0,WeatherDisplay:10.37,2013-11-05 16:49:00,
2013-11-05 10:54:00,65.7,63.9,30.08,SE,135,12.1,12.1,94,0.00,OVC,,0.06,0.0,WeatherDisplay:10.37,2013-11-05 16:54:00,
2013-11-05 10:59:00,66.0,64.2,30.08,SSE,158,6.9,6.9,94,0.00,OVC,,0.06,0.0,WeatherDisplay:10.37,2013-11-05 16:59:00,
2013-11-05 11:04:00,65.8,64.1,30.08,South,180,6.9,6.9,94,0.00,OVC,,0.06,0.0,WeatherDisplay:10.37,2013-11-05 17:04:00,
2013-11-05 11:09:00,66.0,64.2,30.07,SSE,158,8.1,8.1,94,0.00,OVC,,0.06,0.0,WeatherDisplay:10.37,2013-11-05 17:09:00,
2013-11-05 11:14:00,66.4,64.6,30.07,ESE,112,5.8,5.8,94,0.00,OVC,,0.06,0.0,WeatherDisplay:10.37,2013-11-05 17:14:00,
2013-11-05 11:19:00,66.2,64.4,30.07,SE,135,3.5,4.0,94,0.00,OVC,,0.06,0.0,WeatherDisplay:10.37,2013-11-05 17:19:00,
2013-11-05 11:24:00,66.7,65.0,30.07,SSE,158,6.9,6.9,94,0.00,OVC,,0.06,0.0,WeatherDisplay:10.37,2013-11-05 17:24:00,
2013-11-05 11:29:00,66.7,65.0,30.06,SE,135,6.9,6.9,94,0.00,OVC,,0.06,0.0,WeatherDisplay:10.37,2013-11-05 17:29:00,
2013-11-05 11:34:00,67.1,65.3,30.06,SSE,158,5.8,5.8,94,0.00,OVC,,0.06,0.0,WeatherDisplay:10.37,2013-11-05 17:34:00,
2013-11-05 11:39:00,66.9,65.1,30.06,SE,135,9.2,9.2,94,0.00,OVC,,0.06,0.0,WeatherDisplay:10.37,2013-11-05 17:39:00,
2013-11-05 11:45:00,67.1,65.3,30.06,SSE,158,10.4,10.4,94,0.00,OVC,,0.06,0.0,WeatherDisplay:10.37,2013-11-05 17:45:00,
2013-11-05 11:50:00,67.1,65.0,30.06,South,180,2.3,4.5,93,0.00,OVC,,0.06,0.0,WeatherDisplay:10.37,2013-11-05 17:50:00,
2013-11-05 11:55:00,67.1,65.0,30.06,South,180,8.1,8.1,93,0.00,OVC,,0.06,0.0,WeatherDisplay:10.37,2013-11-05 17:55:00,
2013-11-05 12:00:00,67.3,65.2,30.06,SE,135,8.1,8.1,93,0.00,OVC,,0.06,0.0,WeatherDisplay:10.37,2013-11-05 18:00:00,
2013-11-05 12:05:00,67.1,65.0,30.06,SSE,158,6.9,6.9,93,0.00,OVC,,0.06,0.0,WeatherDisplay:10.37,2013-11-05 18:05:00,
2013-11-05 12:10:00,67.1,65.0,30.06,SSE,158,6.9,6.9,93,0.00,OVC,,0.06,0.0,WeatherDisplay:10.37,2013-11-05 18:10:00,
2013-11-05 12:15:00,67.5,65.4,30.06,SSE,158,12.7,12.7,93,0.00,OVC,,0.06,0.0,WeatherDisplay:10.37,2013-11-05 18:15:00,
2013-11-05 12:20:00,67.5,65.4,30.06,SE,135,6.9,6.9,93,0.00,OVC,,0.06,0.0,WeatherDisplay:10.37,2013-11-05 18:20:00,
2013-11-05 12:25:00,67.3,64.9,30.06,SSE,158,9.4,9.4,92,0.00,OVC,,0.06,0.0,WeatherDisplay:10.37,2013-11-05 18:25:00,
2013-11-05 12:30:00,67.3,64.9,30.04,SE,135,9.2,9.2,92,0.00,OVC,,0.06,0.0,WeatherDisplay:10.37,2013-11-05 18:30:00,
2013-11-05 12:35:00,67.1,64.7,30.04,SSE,158,13.8,13.8,92,0.00,OVC,,0.06,0.0,WeatherDisplay:10.37,2013-11-05 18:35:00,
2013-11-05 12:40:00,67.1,64.7,30.04,SSE,158,9.2,9.2,92,0.00,OVC,,0.06,0.0,WeatherDisplay:10.37,2013-11-05 18:40:00,
2013-11-05 12:45:00,67.1,64.7,30.04,SE,135,6.9,6.9,92,0.00,OVC,,0.06,0.0,WeatherDisplay:10.37,2013-11-05 18:45:00,
2013-11-05 12:50:00,67.1,64.7,30.03,ESE,112,10.4,10.4,92,0.00,OVC,,0.06,0.0,WeatherDisplay:10.37,2013-11-05 18:50:00,
2013-11-05 12:55:00,67.1,64.7,30.03,SSE,158,5.8,5.8,92,0.00,OVC,,0.06,0.0,WeatherDisplay:10.37,2013-11-05 18:55:00,
2013-11-05 13:00:00,67.1,64.7,30.03,SE,135,4.6,4.6,92,0.00,OVC,,0.06,0.0,WeatherDisplay:10.37,2013-11-05 19:00:00,
2013-11-05 13:05:00,67.1,64.7,30.03,ESE,112,4.6,4.6,92,0.00,OVC,,0.06,0.0,WeatherDisplay:10.37,2013-11-05 19:05:00,
2013-11-05 13:10:00,67.1,64.7,30.02,SW,225,4.6,4.6,92,0.00,OVC,,0.06,0.0,WeatherDisplay:10.37,2013-11-05 19:10:00,
2013-11-05 13:15:00,67.1,64.7,30.02,ESE,112,2.3,4.0,92,0.00,OVC,,0.06,0.0,WeatherDisplay:10.37,2013-11-05 19:15:00,
2013-11-05 13:20:00,66.9,64.5,30.02,SSE,158,4.6,4.6,92,0.00,OVC,,0.06,0.0,WeatherDisplay:10.37,2013-11-05 19:20:00,
2013-11-05 13:25:00,66.9,64.5,30.02,SSE,158,5.8,5.8,92,0.00,OVC,,0.06,0.0,WeatherDisplay:10.37,2013-11-05 19:25:00,
2013-11-05 13:30:00,67.1,65.0,30.02,SSE,158,5.8,5.8,93,0.00,OVC,,0.06,0.0,WeatherDisplay:10.37,2013-11-05 19:30:00,
2013-11-05 13:35:00,67.1,65.0,30.02,SE,135,8.1,8.1,93,0.00,OVC,,0.06,0.0,WeatherDisplay:10.37,2013-11-05 19:35:00,
2013-11-05 13:40:00,67.3,65.2,30.02,SSE,158,5.8,5.8,93,0.00,OVC,,0.06,0.0,WeatherDisplay:10.37,2013-11-05 19:40:00,
2013-11-05 13:45:00,67.3,65.2,30.02,South,180,3.5,3.5,93,0.00,OVC,,0.06,0.0,WeatherDisplay:10.37,2013-11-05 19:45:00,
2013-11-05 13:50:00,67.1,65.0,30.02,South,180,4.9,4.9,93,0.00,OVC,,0.06,0.0,WeatherDisplay:10.37,2013-11-05 19:50:00,
2013-11-05 13:55:00,67.3,65.2,30.02,West,270,3.5,3.5,93,0.00,OVC,,0.06,0.0,WeatherDisplay:10.37,2013-11-05 19:55:00,
2013-11-05 14:00:00,67.3,65.2,30.02,SE,135,4.9,4.9,93,0.00,OVC,,0.06,0.0,WeatherDisplay:10.37,2013-11-05 20:00:00,
2013-11-05 14:05:00,67.3,65.2,30.02,SSE,158,2.3,2.6,93,0.00,OVC,,0.06,0.0,WeatherDisplay:10.37,2013-11-05 20:05:00,
2013-11-05 14:10:00,67.5,65.4,30.01,SE,135,5.8,5.8,93,0.03,RA,,0.09,0.0,WeatherDisplay:10.37,2013-11-05 20:10:00,
2013-11-05 14:15:00,67.5,65.4,30.01,South,180,4.6,4.6,93,0.03,RA,,0.09,0.0,WeatherDisplay:10.37,2013-11-05 20:15:00,
2013-11-05 14:20:00,67.5,65.4,30.01,NW,315,4.6,4.6,93,0.03,OVC,,0.09,0.0,WeatherDisplay:10.37,2013-11-05 20:20:00,
2013-11-05 14:25:00,67.3,65.2,30.01,ESE,112,3.5,3.5,93,0.03,OVC,,0.09,0.0,WeatherDisplay:10.37,2013-11-05 20:25:00,
2013-11-05 14:30:00,67.3,65.2,30.01,SSW,202,2.3,2.5,93,0.03,OVC,,0.09,0.0,WeatherDisplay:10.37,2013-11-05 20:30:00,
2013-11-05 14:35:00,67.5,65.4,30.01,SSE,158,5.8,5.8,93,0.03,OVC,,0.09,0.0,WeatherDisplay:10.37,2013-11-05 20:35:00,
2013-11-05 14:40:00,67.3,65.2,30.01,SSE,158,2.3,2.6,93,0.03,OVC,,0.09,0.0,WeatherDisplay:10.37,2013-11-05 20:40:00,
2013-11-05 14:45:00,67.5,65.4,30.01,SE,135,5.8,5.8,93,0.03,OVC,,0.09,0.0,WeatherDisplay:10.37,2013-11-05 20:45:00,
2013-11-05 14:50:00,67.5,65.4,29.99,SSE,158,8.1,8.1,93,0.03,OVC,,0.09,0.0,WeatherDisplay:10.37,2013-11-05 20:50:00,
2013-11-05 14:55:00,67.5,65.4,29.99,SE,135,2.6,3.1,93,0.03,OVC,,0.09,0.0,WeatherDisplay:10.37,2013-11-05 20:55:00,
2013-11-05 15:00:00,67.6,65.5,29.99,SE,135,5.8,5.8,93,0.03,OVC,,0.09,0.0,WeatherDisplay:10.37,2013-11-05 21:00:00,
2013-11-05 15:05:00,67.8,65.7,29.99,SE,135,3.6,3.6,93,0.03,OVC,,0.09,0.0,WeatherDisplay:10.37,2013-11-05 21:05:00,
2013-11-05 15:10:00,67.6,65.5,29.99,SSE,158,5.8,5.8,93,0.00,OVC,,0.09,0.0,WeatherDisplay:10.37,2013-11-05 21:10:00,
2013-11-05 15:15:00,67.6,65.5,29.99,SSE,158,5.2,5.2,93,0.00,OVC,,0.09,0.0,WeatherDisplay:10.37,2013-11-05 21:15:00,
2013-11-05 15:20:00,67.6,65.5,29.99,ESE,112,5.8,5.8,93,0.00,OVC,,0.09,0.0,WeatherDisplay:10.37,2013-11-05 21:20:00,
2013-11-05 15:25:00,67.8,65.7,29.99,SSE,158,6.9,6.9,93,0.00,OVC,,0.09,0.0,WeatherDisplay:10.37,2013-11-05 21:25:00,
2013-11-05 15:30:00,67.8,65.7,29.98,SE,135,2.3,4.0,93,0.00,OVC,,0.09,0.0,WeatherDisplay:10.37,2013-11-05 21:30:00,
2013-11-05 15:35:00,68.0,65.9,29.98,SE,135,5.8,5.8,93,0.00,OVC,,0.09,0.0,WeatherDisplay:10.37,2013-11-05 21:35:00,
2013-11-05 15:40:00,68.0,65.9,29.98,SSE,158,4.6,4.6,93,0.00,OVC,,0.09,0.0,WeatherDisplay:10.37,2013-11-05 21:40:00,
2013-11-05 15:45:00,68.0,65.9,29.98,ESE,112,6.9,6.9,93,0.00,OVC,,0.09,0.0,WeatherDisplay:10.37,2013-11-05 21:45:00,
2013-11-05 15:50:00,68.0,65.9,29.98,ESE,112,8.1,8.1,93,0.00,OVC,,0.09,0.0,WeatherDisplay:10.37,2013-11-05 21:50:00,
2013-11-05 15:55:00,68.2,66.1,29.98,ESE,112,5.8,5.8,93,0.00,OVC,,0.09,0.0,WeatherDisplay:10.37,2013-11-05 21:55:00,
2013-11-05 16:00:00,68.0,65.9,29.98,SSE,158,4.6,4.6,93,0.00,OVC,,0.09,0.0,WeatherDisplay:10.37,2013-11-05 22:00:00,
2013-11-05 16:05:00,68.0,65.9,29.98,SE,135,6.9,6.9,93,0.00,OVC,,0.09,0.0,WeatherDisplay:10.37,2013-11-05 22:05:00,
2013-11-05 16:10:00,68.2,66.1,29.99,ESE,112,2.9,3.6,93,0.00,OVC,,0.09,0.0,WeatherDisplay:10.37,2013-11-05 22:10:00,
2013-11-05 16:15:00,68.2,66.1,29.99,SE,135,6.9,6.9,93,0.00,OVC,,0.09,0.0,WeatherDisplay:10.37,2013-11-05 22:15:00,
2013-11-05 16:20:00,68.2,66.1,29.99,SE,135,6.9,6.9,93,0.00,OVC,,0.09,0.0,WeatherDisplay:10.37,2013-11-05 22:20:00,
2013-11-05 16:25:00,68.4,66.3,29.99,SE,135,2.3,4.3,93,0.00,OVC,,0.09,0.0,WeatherDisplay:10.37,2013-11-05 22:25:00,
2013-11-05 16:30:00,68.4,66.3,29.98,SE,135,9.2,9.2,93,0.00,OVC,,0.09,0.0,WeatherDisplay:10.37,2013-11-05 22:30:00,
2013-11-05 16:35:00,68.4,66.3,29.98,ESE,112,4.6,4.6,93,0.00,OVC,,0.09,0.0,WeatherDisplay:10.37,2013-11-05 22:35:00,
2013-11-05 16:40:00,68.5,66.4,29.98,SE,135,4.6,4.6,93,0.00,OVC,,0.09,0.0,WeatherDisplay:10.37,2013-11-05 22:40:00,
2013-11-05 16:45:00,68.4,66.3,29.98,ESE,112,2.6,2.6,93,0.00,OVC,,0.09,0.0,WeatherDisplay:10.37,2013-11-05 22:45:00,
2013-11-05 16:50:00,68.5,66.4,29.98,ESE,112,4.6,4.6,93,0.00,OVC,,0.09,0.0,WeatherDisplay:10.37,2013-11-05 22:50:00,
2013-11-05 16:55:00,68.4,66.3,29.98,East,90,4.6,4.6,93,0.00,OVC,,0.09,0.0,WeatherDisplay:10.37,2013-11-05 22:55:00,
2013-11-05 17:00:00,68.4,66.3,29.98,ESE,112,4.6,4.6,93,0.00,OVC,,0.09,0.0,WeatherDisplay:10.37,2013-11-05 23:00:00,
2013-11-05 17:05:00,68.5,66.4,29.98,SE,135,3.5,3.5,93,0.00,OVC,,0.09,0.0,WeatherDisplay:10.37,2013-11-05 23:05:00,
2013-11-05 17:10:00,68.5,66.4,29.98,ESE,112,3.5,3.5,93,0.00,OVC,,0.09,0.0,WeatherDisplay:10.37,2013-11-05 23:10:00,
2013-11-05 17:15:00,68.5,66.4,29.98,SE,135,5.8,5.8,93,0.00,OVC,,0.09,0.0,WeatherDisplay:10.37,2013-11-05 23:15:00,
2013-11-05 17:20:00,68.4,66.3,29.98,SE,135,5.8,5.8,93,0.00,OVC,,0.09,0.0,WeatherDisplay:10.37,2013-11-05 23:20:00,
2013-11-05 17:25:00,68.5,66.4,29.98,SE,135,4.6,4.6,93,0.00,OVC,,0.09,0.0,WeatherDisplay:10.37,2013-11-05 23:25:00,
2013-11-05 17:30:00,68.5,66.4,29.99,SE,135,6.9,6.9,93,0.00,OVC,,0.09,0.0,WeatherDisplay:10.37,2013-11-05 23:30:00,
2013-11-05 17:36:00,68.4,66.3,29.99,NNE,22,5.8,5.8,93,0.00,OVC,,0.09,0.0,WeatherDisplay:10.37,2013-11-05 23:36:00,
2013-11-05 17:41:00,68.5,66.4,29.99,SE,135,2.3,2.9,93,0.00,OVC,,0.09,0.0,WeatherDisplay:10.37,2013-11-05 23:41:00,
2013-11-05 17:46:00,68.5,66.4,29.99,ESE,112,3.5,3.5,93,0.00,OVC,,0.09,0.0,WeatherDisplay:10.37,2013-11-05 23:46:00,
2013-11-05 17:51:00,68.4,66.3,29.99,East,90,4.6,4.6,93,0.00,OVC,,0.09,0.0,WeatherDisplay:10.37,2013-11-05 23:51:00,
2013-11-05 17:56:00,68.4,66.3,29.99,SE,135,6.9,6.9,93,0.00,OVC,,0.09,0.0,WeatherDisplay:10.37,2013-11-05 23:56:00,
2013-11-05 18:01:00,68.5,66.4,29.99,SE,135,4.9,4.9,93,0.00,CLR,,0.09,0.0,WeatherDisplay:10.37,2013-11-06 00:01:00,
2013-11-05 18:06:00,68.5,66.4,29.99,ESE,112,4.6,4.6,93,0.00,CLR,,0.09,0.0,WeatherDisplay:10.37,2013-11-06 00:06:00,
2013-11-05 18:11:00,68.5,66.4,29.99,SE,135,8.1,8.1,93,0.00,CLR,,0.09,0.0,WeatherDisplay:10.37,2013-11-06 00:11:00,
2013-11-05 18:16:00,68.5,66.4,29.99,SE,135,5.8,5.8,93,0.00,CLR,,0.09,0.0,WeatherDisplay:10.37,2013-11-06 00:16:00,
2013-11-05 18:21:00,68.5,66.4,29.99,SE,135,4.6,4.6,93,0.00,CLR,,0.09,0.0,WeatherDisplay:10.37,2013-11-06 00:21:00,
2013-11-05 18:26:00,68.4,66.3,29.99,SE,135,5.8,5.8,93,0.00,CLR,,0.09,0.0,WeatherDisplay:10.37,2013-11-06 00:26:00,
2013-11-05 18:31:00,68.5,66.4,29.99,ESE,112,3.5,3.8,93,0.00,CLR,,0.09,0.0,WeatherDisplay:10.37,2013-11-06 00:31:00,
2013-11-05 18:36:00,68.5,66.4,29.99,SE,135,4.6,4.6,93,0.00,CLR,,0.09,0.0,WeatherDisplay:10.37,2013-11-06 00:36:00,
2013-11-05 18:41:00,68.5,66.4,29.99,SSE,158,6.9,6.9,93,0.00,CLR,,0.09,0.0,WeatherDisplay:10.37,2013-11-06 00:41:00,
2013-11-05 18:46:00,68.4,66.3,29.99,SSE,158,6.9,6.9,93,0.00,CLR,,0.09,0.0,WeatherDisplay:10.37,2013-11-06 00:46:00,
2013-11-05 18:51:00,68.4,66.3,30.00,SSE,158,8.1,8.1,93,0.00,CLR,,0.09,0.0,WeatherDisplay:10.37,2013-11-06 00:51:00,
2013-11-05 18:56:00,68.4,66.3,30.00,SE,135,6.1,6.1,93,0.00,CLR,,0.09,0.0,WeatherDisplay:10.37,2013-11-06 00:56:00,
2013-11-05 19:01:00,68.4,66.3,30.00,SE,135,6.9,6.9,93,0.00,CLR,,0.09,0.0,WeatherDisplay:10.37,2013-11-06 01:01:00,
2013-11-05 19:06:00,68.4,66.3,30.00,SE,135,7.4,7.4,93,0.00,CLR,,0.09,0.0,WeatherDisplay:10.37,2013-11-06 01:06:00,
2013-11-05 19:11:00,68.4,66.3,30.00,SE,135,6.9,6.9,93,0.00,CLR,,0.09,0.0,WeatherDisplay:10.37,2013-11-06 01:11:00,
2013-11-05 19:16:00,68.4,66.3,30.00,ESE,112,9.2,9.2,93,0.00,CLR,,0.09,0.0,WeatherDisplay:10.37,2013-11-06 01:16:00,
2013-11-05 19:21:00,68.5,66.4,30.00,SSE,158,9.0,9.0,93,0.00,CLR,,0.09,0.0,WeatherDisplay:10.37,2013-11-06 01:21:00,
2013-11-05 19:26:00,68.4,66.3,30.00,SSE,158,5.9,5.9,93,0.00,CLR,,0.09,0.0,WeatherDisplay:10.37,2013-11-06 01:26:00,
2013-11-05 19:31:00,68.4,66.3,29.99,South,180,6.9,6.9,93,0.00,CLR,,0.09,0.0,WeatherDisplay:10.37,2013-11-06 01:31:00,
2013-11-05 19:36:00,68.4,66.3,29.99,SE,135,8.1,8.1,93,0.00,CLR,,0.09,0.0,WeatherDisplay:10.37,2013-11-06 01:36:00,
2013-11-05 19:41:00,68.4,65.9,29.99,SSE,158,5.8,5.8,92,0.00,CLR,,0.09,0.0,WeatherDisplay:10.37,2013-11-06 01:41:00,
2013-11-05 19:46:00,68.5,66.4,29.99,SE,135,6.9,6.9,93,0.00,CLR,,0.09,0.0,WeatherDisplay:10.37,2013-11-06 01:46:00,
2013-11-05 19:51:00,68.5,66.1,30.00,SSE,158,6.9,6.9,92,0.00,CLR,,0.09,0.0,WeatherDisplay:10.37,2013-11-06 01:51:00,
2013-11-05 19:56:00,68.4,65.9,30.00,ESE,112,9.2,9.2,92,0.00,CLR,,0.09,0.0,WeatherDisplay:10.37,2013-11-06 01:56:00,
2013-11-05 20:01:00,68.5,66.1,30.00,SSE,158,5.8,6.0,92,0.00,CLR,,0.09,0.0,WeatherDisplay:10.37,2013-11-06 02:01:00,
2013-11-05 20:06:00,68.4,65.9,30.00,SSE,158,5.8,5.8,92,0.00,CLR,,0.09,0.0,WeatherDisplay:10.37,2013-11-06 02:06:00,
2013-11-05 20:11:00,68.4,65.9,29.99,SE,135,6.9,6.9,92,0.00,CLR,,0.09,0.0,WeatherDisplay:10.37,2013-11-06 02:11:00,
2013-11-05 20:16:00,68.4,65.9,29.99,SE,135,9.2,9.2,92,0.00,CLR,,0.09,0.0,WeatherDisplay:10.37,2013-11-06 02:16:00,
2013-11-05 20:21:00,68.4,65.9,29.99,South,180,5.4,5.4,92,0.00,CLR,,0.09,0.0,WeatherDisplay:10.37,2013-11-06 02:21:00,
2013-11-05 20:26:00,68.5,66.1,29.99,East,90,4.6,4.6,92,0.00,CLR,,0.09,0.0,WeatherDisplay:10.37,2013-11-06 02:26:00,
2013-11-05 20:31:00,68.4,65.9,30.00,SE,135,9.2,9.2,92,0.00,CLR,,0.09,0.0,WeatherDisplay:10.37,2013-11-06 02:31:00,
2013-11-05 20:36:00,68.5,66.4,30.00,SSE,158,5.9,5.9,93,0.00,CLR,,0.09,0.0,WeatherDisplay:10.37,2013-11-06 02:36:00,
2013-11-05 20:41:00,68.4,65.9,30.00,SSE,158,5.8,5.8,92,0.00,CLR,,0.09,0.0,WeatherDisplay:10.37,2013-11-06 02:41:00,
2013-11-05 20:46:00,68.4,65.9,30.00,SE,135,8.1,8.1,92,0.00,CLR,,0.09,0.0,WeatherDisplay:10.37,2013-11-06 02:46:00,
2013-11-05 20:51:00,68.5,66.1,30.00,SSE,158,5.8,5.8,92,0.00,CLR,,0.09,0.0,WeatherDisplay:10.37,2013-11-06 02:51:00,
2013-11-05 20:56:00,68.5,66.4,30.00,SSE,158,9.2,9.2,93,0.00,CLR,,0.09,0.0,WeatherDisplay:10.37,2013-11-06 02:56:00,
2013-11-05 21:01:00,68.7,66.6,30.00,SSE,158,11.5,11.5,93,0.00,CLR,,0.09,0.0,WeatherDisplay:10.37,2013-11-06 03:01:00,
2013-11-05 21:06:00,68.7,66.6,30.00,SSE,158,6.9,6.9,93,0.00,CLR,,0.09,0.0,WeatherDisplay:10.37,2013-11-06 03:06:00,
2013-11-05 21:11:00,68.7,66.6,30.01,SSE,158,6.9,6.9,93,0.00,CLR,,0.09,0.0,WeatherDisplay:10.37,2013-11-06 03:11:00,
2013-11-05 21:16:00,68.7,66.6,30.01,South,180,6.9,6.9,93,0.00,CLR,,0.09,0.0,WeatherDisplay:10.37,2013-11-06 03:16:00,
2013-11-05 21:21:00,68.7,66.6,30.01,South,180,10.4,10.4,93,0.00,CLR,,0.09,0.0,WeatherDisplay:10.37,2013-11-06 03:21:00,
2013-11-05 21:26:00,68.7,66.6,30.01,SSE,158,6.9,6.9,93,0.00,CLR,,0.09,0.0,WeatherDisplay:10.37,2013-11-06 03:26:00,
2013-11-05 21:31:00,68.7,66.6,30.01,South,180,9.2,9.2,93,0.00,CLR,,0.09,0.0,WeatherDisplay:10.37,2013-11-06 03:31:00,
2013-11-05 21:36:00,68.9,66.8,30.01,South,180,6.9,6.9,93,0.00,CLR,,0.09,0.0,WeatherDisplay:10.37,2013-11-06 03:36:00,
2013-11-05 21:41:00,68.9,66.5,30.01,SE,135,5.8,5.8,92,0.00,CLR,,0.09,0.0,WeatherDisplay:10.37,2013-11-06 03:41:00,
2013-11-05 21:46:00,68.9,66.8,30.01,SSE,158,4.6,4.6,93,0.00,CLR,,0.09,0.0,WeatherDisplay:10.37,2013-11-06 03:46:00,
2013-11-05 21:51:00,68.9,66.8,30.01,South,180,3.1,3.1,93,0.00,CLR,,0.09,0.0,WeatherDisplay:10.37,2013-11-06 03:51:00,
2013-11-05 21:56:00,68.7,66.6,30.01,SSW,202,3.7,3.7,93,0.00,CLR,,0.09,0.0,WeatherDisplay:10.37,2013-11-06 03:56:00,
2013-11-05 22:01:00,68.7,66.6,30.01,ESE,112,3.5,3.5,93,0.00,CLR,,0.09,0.0,WeatherDisplay:10.37,2013-11-06 04:01:00,
2013-11-05 22:06:00,68.7,66.6,30.01,WSW,248,3.5,3.5,93,0.00,CLR,,0.09,0.0,WeatherDisplay:10.37,2013-11-06 04:06:00,
2013-11-05 22:11:00,68.9,66.8,30.02,West,270,6.9,6.9,93,0.00,CLR,,0.09,0.0,WeatherDisplay:10.37,2013-11-06 04:11:00,
2013-11-05 22:16:00,68.9,66.8,30.02,SSE,158,4.6,4.6,93,0.00,CLR,,0.09,0.0,WeatherDisplay:10.37,2013-11-06 04:16:00,
2013-11-05 22:22:00,68.9,66.8,30.02,SE,135,3.6,3.6,93,0.00,CLR,,0.09,0.0,WeatherDisplay:10.37,2013-11-06 04:22:00,
2013-11-05 22:27:00,69.1,67.0,30.02,SE,135,2.3,2.3,93,0.00,CLR,,0.09,0.0,WeatherDisplay:10.37,2013-11-06 04:27:00,
2013-11-05 22:32:00,69.3,67.1,30.04,ESE,112,2.3,2.3,93,0.00,CLR,,0.09,0.0,WeatherDisplay:10.37,2013-11-06 04:32:00,
2013-11-05 22:37:00,69.3,67.1,30.04,South,180,2.3,2.3,93,0.00,CLR,,0.09,0.0,WeatherDisplay:10.37,2013-11-06 04:37:00,
2013-11-05 22:42:00,69.3,67.1,30.04,SE,135,2.3,2.3,93,0.00,CLR,,0.09,0.0,WeatherDisplay:10.37,2013-11-06 04:42:00,
2013-11-05 22:47:00,69.3,67.1,30.04,South,180,5.8,5.8,93,0.00,CLR,,0.09,0.0,WeatherDisplay:10.37,2013-11-06 04:47:00,
2013-11-05 22:52:00,69.3,67.1,30.03,SSW,202,4.6,4.6,93,0.00,CLR,,0.09,0.0,WeatherDisplay:10.37,2013-11-06 04:52:00,
2013-11-05 22:57:00,69.4,67.3,30.03,South,180,5.2,5.2,93,0.00,CLR,,0.09,0.0,WeatherDisplay:10.37,2013-11-06 04:57:00,
2013-11-05 23:01:00,69.4,67.3,30.03,SE,135,3.8,3.8,93,0.00,CLR,,0.09,0.0,WeatherDisplay:10.37,2013-11-06 05:01:00,
2013-11-05 23:06:00,69.4,67.3,30.03,South,180,8.1,8.1,93,0.00,CLR,,0.09,0.0,WeatherDisplay:10.37,2013-11-06 05:06:00,
2013-11-05 23:11:00,69.6,67.5,30.03,SSE,158,4.6,4.6,93,0.00,CLR,,0.09,0.0,WeatherDisplay:10.37,2013-11-06 05:11:00,
2013-11-05 23:16:00,69.4,67.3,30.03,SSE,158,8.1,8.1,93,0.00,CLR,,0.09,0.0,WeatherDisplay:10.37,2013-11-06 05:16:00,
2013-11-05 23:21:00,69.6,67.5,30.03,East,90,4.6,4.6,93,0.00,CLR,,0.09,0.0,WeatherDisplay:10.37,2013-11-06 05:21:00,
2013-11-05 23:26:00,69.6,67.5,30.03,SE,135,6.9,6.9,93,0.00,CLR,,0.09,0.0,WeatherDisplay:10.37,2013-11-06 05:26:00,
2013-11-05 23:31:00,69.6,67.5,30.03,ENE,68,4.6,4.6,93,0.00,CLR,,0.09,0.0,WeatherDisplay:10.37,2013-11-06 05:31:00,
2013-11-05 23:36:00,69.8,67.7,30.03,NW,315,3.5,3.5,93,0.00,CLR,,0.09,0.0,WeatherDisplay:10.37,2013-11-06 05:36:00,
2013-11-05 23:41:00,69.8,67.7,30.03,SW,225,3.6,3.6,93,0.00,CLR,,0.09,0.0,WeatherDisplay:10.37,2013-11-06 05:41:00,
2013-11-05 23:46:00,70.0,67.9,30.03,SE,135,5.1,5.1,93,0.00,CLR,,0.09,0.0,WeatherDisplay:10.37,2013-11-06 05:46:00,
2013-11-05 23:51:00,70.0,67.9,30.03,SSE,158,3.8,3.8,93,0.00,CLR,,0.09,0.0,WeatherDisplay:10.37,2013-11-06 05:51:00,
2013-11-05 23:56:00,70.0,67.9,30.03,South,180,2.4,2.6,93,0.00,CLR,,0.09,0.0,WeatherDisplay:10.37,2013-11-06 05:56:00,